Regional Weather Roundup
Issued by NWS

Home | Current Version | Previous Version | Graphics & Text | Print | Product List | Glossary On
Versions: 1 2 3 4 5 6 7 8 9 10 11 12 13 14 15 16 17 18 19 20 21 22 23 24 25 26 27 28 29 30 31 32 33 34 35 36 37 38 39 40 41 42 43 44 45 46 47 48 49 50
240
ASUS44 KJAN 172010
RWRMS

MISSISSIPPI HOURLY WEATHER ROUNDUP
NATIONAL WEATHER SERVICE JACKSON MS
300 PM CDT FRI APR 17 2015

NOTE: "FAIR: INDICATES FEW OR NO CLOUDS BELOW 12,000 FEET WITH NO
SIGNIFICANT WEATHER AND/OR OBSTRUCTIONS TO VISIBILITY.

MSZ001>002-007>008-010>013-018>021-025>028-034>036-172100-
NORTHWEST MISSISSIPPI

CITY           SKY/WX    TMP DP  RH WIND       PRES   REMARKS
CLARKSDALE     FAIR      72  64  78 E8        30.00F
CLEVELAND      CLOUDY    72  67  84 E12       29.98F
GREENWOOD      PTSUNNY   71  64  78 E16       29.97F
GREENVILLE     SUNNY     76  62  62 NE14      29.98F
OLIVE BRANCH   CLOUDY    68  68 100 N8        30.01F
OXFORD         PTSUNNY   66  63  88 SE5       30.01F
TUNICA         CLOUDY    72  66  83 N9        30.01F
$$

MSZ003>006-009-014>017-022>024-029>033-037>039-172100-
NORTHEAST MISSISSIPPI

CITY           SKY/WX    TMP DP  RH WIND       PRES   REMARKS
COLUMBUS AFB   CLOUDY    66  65  96 NE7       30.00F
CORINTH        CLOUDY    66  61  82 E5        30.01F
GOLDN TRIANGLE CLOUDY    64  61  88 NE9       30.00F
STARKVILLE     CLOUDY    66  63  88 E7        30.00F
TUPELO         CLOUDY    67  63  87 NE7       30.00F
$$

MSZ040-058-172100-
CENTRAL MISSISSIPPI

CITY           SKY/WX    TMP DP  RH WIND       PRES   REMARKS
JACKSON INTL   PTSUNNY   78  66  66 S9        29.94F
JACKSON HAWKNS PTSUNNY   72  65  78 N10G22    29.96R
MERIDIAN KEY   CLOUDY    75  63  66 CALM      29.96F
MERIDIAN NAS   PTSUNNY   73  64  73 NE10      29.97F
RAYMOND        FAIR      81  75  83 NW9G15    29.94F
VICKSBURG      CLOUDY    78  65  63 VRB3      29.96F
$$

MSZ059>079-172100-
SOUTH MISSISSIPPI

CITY           SKY/WX    TMP DP  RH WIND       PRES   REMARKS
BROOKHAVEN     MOCLDY    81  75  83 S6        29.96F
HATTIESBURG    PTSUNNY   82  68  62 W5        29.93F
MCCOMB         MOSUNNY   80  67  64 W5        29.94F
NATCHEZ        SUNNY     81  64  57 SW7       29.95F
PINE BELT      PTSUNNY   81  66  61 SW3       29.94F
$$

MSZ080>082-172100-
COASTAL MISSISSIPPI

CITY           SKY/WX    TMP DP  RH WIND       PRES   REMARKS
BAY ST LOUIS   PTSUNNY   81  66  61 MISG      29.93F
BILOXI         SUNNY     79  73  80 W15       29.92F
PASCAGOULA     PTSUNNY   80  71  74 SW8G18    29.93F
GULFPORT       MOSUNNY   80  71  74 SW6       29.92F
$$



USA.gov is the U.S. government's official web portal to all federal, state and local government web resources and services.